| time (UTC) | temp C | wind direction | speed KPH | gust KPH | rain 1hr cm | rain 24hr cm | rain mn cm | humidity % | barometer mb |
| 20260504183603 | 23 | 226 | 11.3 | 29.0 | 0.00 | 0.00 | 0.00 | 51 | 1004.3 |
| 20260504182724 | 23 | 229 | 14.5 | 37.0 | 0.00 | 0.00 | 0.00 | 50 | 1004.3 |
| 20260504181803 | 23 | 225 | 12.9 | 38.6 | 0.00 | 0.00 | 0.00 | 50 | 1004.6 |
| 20260504180924 | 23 | 236 | 9.7 | 22.5 | 0.00 | 0.00 | 0.00 | 53 | 1004.7 |
| 20260504180003 | 23 | 225 | 14.5 | 40.2 | 0.00 | 0.00 | 0.00 | 52 | 1004.7 |
| 20260504175425 | 23 | 223 | 14.5 | 40.2 | 0.00 | 0.00 | 0.00 | 51 | 1004.8 |
| 20260504174503 | 22 | 249 | 9.7 | 30.6 | 0.00 | 0.00 | 0.00 | 53 | 1004.7 |
| 20260504173603 | 22 | 232 | 9.7 | 30.6 | 0.00 | 0.00 | 0.00 | 51 | 1005.0 |
| 20260504172703 | 22 | 211 | 12.9 | 48.3 | 0.00 | 0.00 | 0.00 | 51 | 1005.0 |
| 20260504171803 | 22 | 220 | 11.3 | 27.4 | 0.00 | 0.00 | 0.00 | 52 | 1005.0 |
| 20260504170903 | 22 | 208 | 14.5 | 30.6 | 0.00 | 0.00 | 0.00 | 52 | 1005.1 |
| 20260504150903 | 18 | 229 | 9.7 | 24.1 | 0.00 | 0.00 | 0.00 | 61 | 1006.7 |
| 20260504140903 | 16 | 223 | 9.7 | 22.5 | 0.00 | 0.00 | 0.00 | 65 | 1006.8 |
| 20260504081824 | 8 | 205 | 6.4 | 16.1 | 0.00 | 0.00 | 0.00 | 80 | 1008.0 |
| 20260504080903 | 8 | 203 | 6.4 | 14.5 | 0.00 | 0.00 | 0.00 | 80 | 1008.1 |
| 20260504050003 | 9 | 186 | 6.4 | 16.1 | 0.00 | 0.00 | 0.00 | 76 | 1010.0 |
| 20260504045403 | 9 | 182 | 6.4 | 16.1 | 0.00 | 0.00 | 0.00 | 77 | 1010.0 |
| 20260504044504 | 9 | 191 | 6.4 | 22.5 | 0.00 | 0.00 | 0.00 | 77 | 1010.1 |
| 20260504043603 | 9 | 190 | 8.0 | 17.7 | 0.00 | 0.00 | 0.00 | 77 | 1010.2 |
| 20260504042703 | 9 | 192 | 6.4 | 17.7 | 0.00 | 0.00 | 0.00 | 77 | 1010.2 |
| 20260504041803 | 9 | 178 | 6.4 | 14.5 | 0.00 | 0.00 | 0.00 | 77 | 1010.3 |
| 20260504040924 | 9 | 190 | 6.4 | 14.5 | 0.00 | 0.00 | 0.00 | 77 | 1010.4 |
| 20260504040004 | 9 | 183 | 6.4 | 20.9 | 0.00 | 0.00 | 0.00 | 77 | 1010.5 |
| 20260504035403 | 9 | 183 | 6.4 | 20.9 | 0.00 | 0.00 | 0.00 | 77 | 1010.5 |
| 20260504034504 | 9 | 188 | 6.4 | 19.3 | 0.00 | 0.00 | 0.00 | 76 | 1010.7 |
| 20260504033603 | 9 | 184 | 6.4 | 19.3 | 0.00 | 0.00 | 0.00 | 76 | 1010.8 |
| 20260504032703 | 10 | 187 | 6.4 | 19.3 | 0.00 | 0.00 | 0.00 | 76 | 1010.9 |
| 20260504031803 | 10 | 188 | 6.4 | 17.7 | 0.00 | 0.00 | 0.00 | 76 | 1010.9 |
| 20260504030903 | 10 | 189 | 8.0 | 19.3 | 0.00 | 0.00 | 0.00 | 76 | 1011.0 |
| 20260504030003 | 10 | 196 | 9.7 | 24.1 | 0.00 | 0.00 | 0.00 | 76 | 1011.0 |
| 20260504025424 | 10 | 194 | 9.7 | 19.3 | 0.00 | 0.00 | 0.00 | 76 | 1011.1 |
| 20260504024503 | 10 | 184 | 9.7 | 22.5 | 0.00 | 0.00 | 0.00 | 76 | 1011.2 |
| 20260504023603 | 10 | 191 | 9.7 | 29.0 | 0.00 | 0.00 | 0.00 | 76 | 1011.2 |
| 20260504022703 | 10 | 196 | 9.7 | 29.0 | 0.00 | 0.00 | 0.00 | 76 | 1011.3 |
| 20260504021824 | 10 | 187 | 8.0 | 22.5 | 0.00 | 0.00 | 0.00 | 76 | 1011.4 |
| 20260504020924 | 9 | 191 | 9.7 | 22.5 | 0.00 | 0.00 | 0.00 | 77 | 1011.4 |
| 20260504020003 | 9 | 191 | 9.7 | 25.7 | 0.00 | 0.00 | 0.00 | 78 | 1011.4 |
| 20260504015404 | 9 | 185 | 9.7 | 24.1 | 0.00 | 0.00 | 0.00 | 78 | 1011.3 |
| 20260504014524 | 9 | 194 | 9.7 | 24.1 | 0.00 | 0.00 | 0.00 | 78 | 1011.4 |
| 20260504013603 | 10 | 182 | 9.7 | 24.1 | 0.00 | 0.00 | 0.00 | 77 | 1011.2 |
| 20260504012703 | 10 | 192 | 9.7 | 22.5 | 0.00 | 0.00 | 0.00 | 75 | 1011.4 |
| 20260504011803 | 10 | 196 | 6.4 | 17.7 | 0.00 | 0.00 | 0.00 | 75 | 1011.6 |
| 20260504010924 | 10 | 185 | 8.0 | 16.1 | 0.00 | 0.00 | 0.00 | 75 | 1011.3 |
| 20260504010024 | 10 | 187 | 8.0 | 19.3 | 0.00 | 0.00 | 0.00 | 75 | 1011.5 |
| 20260504005403 | 10 | 189 | 8.0 | 22.5 | 0.00 | 0.00 | 0.00 | 75 | 1011.6 |
| 20260504004503 | 10 | 181 | 6.4 | 16.1 | 0.00 | 0.00 | 0.00 | 74 | 1011.8 |
| 20260504003603 | 10 | 191 | 6.4 | 16.1 | 0.00 | 0.00 | 0.00 | 74 | 1011.9 |
| 20260504002703 | 10 | 189 | 4.8 | 16.1 | 0.00 | 0.00 | 0.00 | 73 | 1012.0 |
| 20260504001803 | 10 | 193 | 6.4 | 14.5 | 0.00 | 0.00 | 0.00 | 72 | 1012.0 |
| 20260504000903 | 10 | 180 | 4.8 | 16.1 | 0.00 | 0.00 | 0.00 | 71 | 1012.0 |
| 20260504000003 | 10 | 188 | 6.4 | 16.1 | 0.00 | 0.00 | 0.00 | 71 | 1012.0 |
| 20260503235403 | 10 | 191 | 6.4 | 16.1 | 0.00 | 0.00 | 0.00 | 71 | 1012.0 |
| 20260503234503 | 10 | 181 | 6.4 | 16.1 | 0.00 | 0.00 | 0.00 | 71 | 1012.0 |
| 20260503233603 | 10 | 182 | 4.8 | 14.5 | 0.00 | 0.00 | 0.00 | 72 | 1011.9 |
| 20260503232703 | 10 | 186 | 6.4 | 14.5 | 0.00 | 0.00 | 0.00 | 72 | 1012.1 |
| 20260503231803 | 10 | 180 | 6.4 | 14.5 | 0.00 | 0.00 | 0.00 | 72 | 1012.1 |
| 20260503230903 | 10 | 195 | 6.4 | 17.7 | 0.00 | 0.00 | 0.00 | 72 | 1012.3 |
| 20260503230004 | 10 | 190 | 4.8 | 16.1 | 0.00 | 0.00 | 0.00 | 72 | 1012.5 |
| 20260503225403 | 10 | 193 | 6.4 | 16.1 | 0.00 | 0.00 | 0.00 | 72 | 1012.5 |
| 20260503224504 | 10 | 195 | 6.4 | 16.1 | 0.00 | 0.00 | 0.00 | 72 | 1012.6 |
| 20260503223624 | 10 | 193 | 6.4 | 17.7 | 0.00 | 0.00 | 0.00 | 72 | 1012.8 |
| 20260503222703 | 10 | 195 | 6.4 | 20.9 | 0.00 | 0.00 | 0.00 | 71 | 1012.8 |
| 20260503221803 | 10 | 208 | 9.7 | 20.9 | 0.00 | 0.00 | 0.00 | 70 | 1012.9 |
| 20260503220903 | 11 | 212 | 9.7 | 20.9 | 0.00 | 0.00 | 0.00 | 69 | 1013.0 |
| 20260503220003 | 11 | 221 | 11.3 | 27.4 | 0.00 | 0.00 | 0.00 | 68 | 1013.4 |
| 20260503215403 | 11 | 221 | 11.3 | 27.4 | 0.00 | 0.00 | 0.00 | 68 | 1013.4 |
| 20260503214503 | 11 | 221 | 11.3 | 30.6 | 0.00 | 0.00 | 0.00 | 69 | 1013.6 |
| 20260503213603 | 11 | 230 | 12.9 | 32.2 | 0.00 | 0.00 | 0.00 | 69 | 1013.8 |
| 20260503212703 | 11 | 235 | 14.5 | 33.8 | 0.00 | 0.00 | 0.00 | 68 | 1013.9 |
| 20260503211803 | 11 | 253 | 12.9 | 37.0 | 0.00 | 0.00 | 0.00 | 67 | 1013.9 |
| 20260503210903 | 12 | 249 | 14.5 | 33.8 | 0.00 | 0.00 | 0.00 | 64 | 1014.0 |
| 20260503210004 | 12 | 249 | 11.3 | 29.0 | 0.00 | 0.00 | 0.00 | 62 | 1013.8 |
| 20260503205403 | 13 | 255 | 12.9 | 29.0 | 0.00 | 0.00 | 0.00 | 61 | 1013.7 |
| 20260503204503 | 13 | 256 | 12.9 | 38.6 | 0.00 | 0.00 | 0.00 | 56 | 1013.7 |
| 20260503203624 | 15 | 227 | 12.9 | 32.2 | 0.00 | 0.00 | 0.00 | 45 | 1013.5 |
| 20260503202703 | 15 | 226 | 12.9 | 27.4 | 0.00 | 0.00 | 0.00 | 44 | 1013.5 |
| 20260503201803 | 15 | 225 | 11.3 | 30.6 | 0.00 | 0.00 | 0.00 | 44 | 1013.7 |
| 20260503200924 | 15 | 223 | 11.3 | 33.8 | 0.00 | 0.00 | 0.00 | 42 | 1013.6 |
| 20260503200003 | 15 | 232 | 12.9 | 32.2 | 0.00 | 0.00 | 0.00 | 42 | 1013.7 |
| 20260503195403 | 15 | 225 | 12.9 | 32.2 | 0.00 | 0.00 | 0.00 | 41 | 1013.8 |
| 20260503194503 | 15 | 214 | 11.3 | 35.4 | 0.00 | 0.00 | 0.00 | 41 | 1013.9 |
| 20260503193603 | 15 | 222 | 12.9 | 35.4 | 0.00 | 0.00 | 0.00 | 40 | 1014.0 |
| 20260503192703 | 16 | 223 | 9.7 | 27.4 | 0.00 | 0.00 | 0.00 | 41 | 1014.1 |
| 20260503191824 | 16 | 216 | 14.5 | 37.0 | 0.00 | 0.00 | 0.00 | 40 | 1014.2 |
| 20260503190903 | 16 | 229 | 14.5 | 29.0 | 0.00 | 0.00 | 0.00 | 39 | 1014.1 |
| 20260503190004 | 16 | 223 | 12.9 | 32.2 | 0.00 | 0.00 | 0.00 | 39 | 1014.2 |
| 20260503185403 | 16 | 221 | 12.9 | 32.2 | 0.00 | 0.00 | 0.00 | 41 | 1014.3 |
| 20260503184503 | 16 | 223 | 11.3 | 27.4 | 0.00 | 0.00 | 0.00 | 38 | 1014.5 |